DateTime,Index
2003082718,0.0
2003082800,0.0
2003082806,0.0
2003082812,1225.0
2003082818,1600.0
2003082900,2025.0
2003082906,2500.0
2003082912,2500.0
2003082918,3600.0
2003083000,4225.0
2003083006,4900.0
2003083012,7225.0
2003083018,10000.0
2003083100,12100.0
2003083106,12100.0
2003083112,12100.0
2003083118,13225.0
2003090100,14400.0
2003090106,14400.0
2003090112,14400.0
2003090118,15625.0
2003090200,15625.0
2003090206,14400.0
2003090212,14400.0
2003090218,14400.0
2003090300,13225.0
2003090306,12100.0
2003090312,12100.0
2003090318,12100.0
2003090400,13225.0
2003090406,11025.0
2003090412,11025.0
2003090418,12100.0
2003090500,13225.0
2003090506,11025.0
2003090512,11025.0
2003090518,11025.0
2003090600,10000.0
2003090606,10000.0
2003090612,10000.0
2003090618,10000.0
2003090700,8100.0
2003090706,7225.0
2003090712,6400.0
2003090718,5625.0
2003090800,4900.0
2003090806,4900.0
2003090812,4225.0
2003090818,4225.0
2003090900,3600.0
2003090906,2500.0
2003090912,2500.0
2003090918,1600.0
